When you browse on this site, cookies collect data to enhance your experience and personalize the content and advertising you see.
Visit our Privacy Policy to learn more. By continuing to use the site, you agree to this use of cookies and data.
  • în România
  • Lista ţărilor
  • Pe 7 zile
  • Temperatura apei
  • Meteo pe hartă
  • Widget-uri
  • user-avatar
    Intrare

    Meteo pe oră la Ballycastle

    Astăzi, 30 Mai, Sâmbătă

    Timp Temperatura Precipitaţii Vânt Presiune Umiditate
    00:00 +12°C° 0 mm 4 m/s 764 mmHg 70%
    01:00 +12°C° 0 mm 4 m/s 764 mmHg 71%
    02:00 +12°C° 0 mm 4 m/s 763 mmHg 72%
    03:00 +10°C° 0 mm 5 m/s 763 mmHg 74%
    04:00 +12°C° 0 mm 5 m/s 763 mmHg 77%
    05:00 +13°C° 0 mm 5 m/s 764 mmHg 81%
    06:00 +13°C° 0 mm 5 m/s 764 mmHg 85%
    07:00 +14°C° 0 mm 5 m/s 764 mmHg 84%
    08:00 +15°C° 0 mm 6 m/s 764 mmHg 83%
    09:00 +16°C° 0 mm 6 m/s 764 mmHg 82%
    10:00 +17°C° 0 mm 7 m/s 764 mmHg 79%
    11:00 +17°C° 0 mm 7 m/s 764 mmHg 76%
    12:00 +17°C° 0 mm 7 m/s 764 mmHg 73%
    13:00 +17°C° 0 mm 7 m/s 764 mmHg 69%
    14:00 +17°C° 0 mm 6 m/s 763 mmHg 66%
    15:00 +17°C° 0 mm 6 m/s 763 mmHg 63%
    16:00 +16°C° 0 mm 6 m/s 763 mmHg 65%
    17:00 +16°C° 0 mm 5 m/s 763 mmHg 67%
    18:00 +15°C° 0 mm 5 m/s 763 mmHg 69%
    19:00 +14°C° 0 mm 5 m/s 763 mmHg 72%
    20:00 +13°C° 0 mm 5 m/s 763 mmHg 75%
    21:00 +12°C° 0 mm 4 m/s 763 mmHg 78%
    22:00 +12°C° 0 mm 5 m/s 764 mmHg 82%
    23:00 +12°C° 0 mm 5 m/s 764 mmHg 86%

    Mâine, 31 Mai, Duminică

    Timp Temperatura Precipitaţii Vânt Presiune Umiditate
    00:00 +12°C° 0 mm 5 m/s 764 mmHg 89%
    01:00 +11°C° 0 mm 6 m/s 764 mmHg 90%
    02:00 +11°C° 0 mm 6 m/s 764 mmHg 90%
    03:00 +11°C° 0 mm 6 m/s 764 mmHg 90%
    04:00 +11°C° 0 mm 6 m/s 764 mmHg 90%
    05:00 +11°C° 0 mm 6 m/s 764 mmHg 89%
    06:00 +11°C° 0 mm 6 m/s 764 mmHg 89%
    07:00 +13°C° 0 mm 6 m/s 765 mmHg 86%
    08:00 +14°C° 0 mm 6 m/s 765 mmHg 83%
    09:00 +14°C° 0 mm 6 m/s 765 mmHg 80%
    10:00 +15°C° 0 mm 6 m/s 765 mmHg 76%
    11:00 +16°C° 0 mm 6 m/s 765 mmHg 73%
    12:00 +16°C° 0 mm 6 m/s 765 mmHg 70%
    13:00 +16°C° 0 mm 6 m/s 765 mmHg 70%
    14:00 +17°C° 0 mm 5 m/s 765 mmHg 70%
    15:00 +17°C° 0 mm 5 m/s 765 mmHg 70%
    16:00 +17°C° 0 mm 5 m/s 765 mmHg 72%
    17:00 +17°C° 0 mm 5 m/s 765 mmHg 73%
    18:00 +18°C° 0 mm 4 m/s 765 mmHg 75%
    19:00 +15°C° 0 mm 4 m/s 765 mmHg 77%
    20:00 +14°C° 0 mm 3 m/s 765 mmHg 79%
    21:00 +13°C° 0 mm 3 m/s 766 mmHg 81%
    22:00 +13°C° 0 mm 3 m/s 766 mmHg 81%
    23:00 +12°C° 0 mm 3 m/s 766 mmHg 81%

    Poimâine, 1 Iunie, Luni

    Timp Temperatura Precipitaţii Vânt Presiune Umiditate
    00:00 +12°C° 0 mm 3 m/s 766 mmHg 82%
    01:00 +12°C° 0 mm 3 m/s 766 mmHg 85%
    02:00 +11°C° 0 mm 3 m/s 766 mmHg 88%
    03:00 +11°C° 0 mm 4 m/s 767 mmHg 91%
    04:00 +12°C° 0 mm 4 m/s 767 mmHg 89%
    05:00 +12°C° 0 mm 4 m/s 767 mmHg 88%
    06:00 +13°C° 0 mm 4 m/s 767 mmHg 87%
    07:00 +14°C° 0 mm 4 m/s 767 mmHg 84%
    08:00 +15°C° 0 mm 4 m/s 767 mmHg 81%
    09:00 +17°C° 0 mm 4 m/s 767 mmHg 78%
    10:00 +17°C° 0 mm 4 m/s 767 mmHg 74%
    11:00 +18°C° 0 mm 4 m/s 767 mmHg 71%
    12:00 +19°C° 0 mm 3 m/s 767 mmHg 67%
    13:00 +19°C° 0 mm 3 m/s 767 mmHg 66%
    14:00 +19°C° 0 mm 3 m/s 767 mmHg 66%
    15:00 +19°C° 0 mm 3 m/s 766 mmHg 65%
    16:00 +19°C° 0 mm 3 m/s 766 mmHg 68%
    17:00 +19°C° 0 mm 2 m/s 766 mmHg 70%
    18:00 +18°C° 0 mm 2 m/s 766 mmHg 73%
    19:00 +18°C° 0 mm 1 m/s 766 mmHg 76%
    20:00 +16°C° 0 mm 1 m/s 766 mmHg 80%
    21:00 +14°C° 0 mm 1 m/s 766 mmHg 83%
    22:00 +14°C° 0 mm 1 m/s 766 mmHg 82%
    23:00 +13°C° 0 mm 1 m/s 766 mmHg 82%

    2 Iunie, Marţi

    Timp Temperatura Precipitaţii Vânt Presiune Umiditate
    00:00 +13°C° 0 mm 1 m/s 765 mmHg 81%
    01:00 +13°C° 0 mm 1 m/s 765 mmHg 79%
    02:00 +13°C° 0 mm 1 m/s 765 mmHg 77%
    03:00 +13°C° 0 mm 1 m/s 765 mmHg 76%
    04:00 +13°C° 0 mm 1 m/s 765 mmHg 77%
    05:00 +13°C° 0 mm 1 m/s 764 mmHg 79%
    06:00 +14°C° 0 mm 2 m/s 764 mmHg 81%
    07:00 +15°C° 0 mm 2 m/s 764 mmHg 80%
    08:00 +16°C° 0 mm 2 m/s 764 mmHg 78%
    09:00 +17°C° 0 mm 3 m/s 764 mmHg 76%
    10:00 +17°C° 0.1 mm 3 m/s 763 mmHg 78%
    11:00 +17°C° 0.1 mm 4 m/s 763 mmHg 79%
    12:00 +17°C° 0.1 mm 4 m/s 763 mmHg 80%
    13:00 +15°C° 0.1 mm 5 m/s 763 mmHg 81%
    14:00 +15°C° 0.1 mm 6 m/s 762 mmHg 83%
    15:00 +14°C° 0.1 mm 6 m/s 762 mmHg 84%
    16:00 +14°C° 0 mm 7 m/s 762 mmHg 83%
    17:00 +12°C° 0 mm 7 m/s 762 mmHg 82%
    18:00 +11°C° 0 mm 7 m/s 761 mmHg 81%
    19:00 +10°C° 0 mm 7 m/s 761 mmHg 85%
    20:00 +10°C° 0 mm 7 m/s 761 mmHg 88%
    21:00 +9°C° 0 mm 7 m/s 761 mmHg 91%
    22:00 +9°C° 0 mm 7 m/s 761 mmHg 90%
    23:00 +8°C° 0 mm 7 m/s 761 mmHg 89%

    3 Iunie, Miercuri

    Timp Temperatura Precipitaţii Vânt Presiune Umiditate
    00:00 +8°C° 0 mm 7 m/s 761 mmHg 88%
    01:00 +9°C° 0 mm 7 m/s 761 mmHg 88%
    02:00 +9°C° 0 mm 6 m/s 761 mmHg 87%
    03:00 +9°C° 0 mm 6 m/s 761 mmHg 87%
    04:00 +9°C° 0 mm 6 m/s 761 mmHg 85%
    05:00 +9°C° 0 mm 6 m/s 761 mmHg 83%
    06:00 +9°C° 0 mm 7 m/s 761 mmHg 81%
    07:00 +9°C° 0 mm 7 m/s 761 mmHg 76%
    08:00 +10°C° 0 mm 7 m/s 762 mmHg 70%
    09:00 +10°C° 0 mm 8 m/s 762 mmHg 65%
    10:00 +10°C° 0 mm 8 m/s 762 mmHg 64%
    11:00 +11°C° 0 mm 8 m/s 762 mmHg 63%
    12:00 +11°C° 0 mm 7 m/s 762 mmHg 62%
    13:00 +11°C° 0 mm 8 m/s 761 mmHg 63%
    14:00 +11°C° 0 mm 8 m/s 761 mmHg 64%
    15:00 +11°C° 0 mm 8 m/s 761 mmHg 65%
    16:00 +11°C° 0 mm 8 m/s 761 mmHg 66%
    17:00 +11°C° 0 mm 8 m/s 761 mmHg 68%
    18:00 +10°C° 0 mm 8 m/s 760 mmHg 70%
    19:00 +10°C° 0 mm 8 m/s 760 mmHg 72%
    20:00 +9°C° 0 mm 7 m/s 760 mmHg 74%
    21:00 +8°C° 0 mm 7 m/s 760 mmHg 76%
    22:00 +8°C° 0 mm 7 m/s 760 mmHg 77%
    23:00 +7°C° 0 mm 6 m/s 760 mmHg 78%

    4 Iunie, Joi

    Timp Temperatura Precipitaţii Vânt Presiune Umiditate
    00:00 +7°C° 0 mm 6 m/s 760 mmHg 79%
    01:00 +7°C° 0 mm 6 m/s 759 mmHg 81%
    02:00 +6°C° 0 mm 5 m/s 759 mmHg 84%
    03:00 +6°C° 0 mm 5 m/s 758 mmHg 87%
    04:00 +6°C° 0 mm 5 m/s 758 mmHg 86%
    05:00 +7°C° 0 mm 5 m/s 757 mmHg 84%
    06:00 +8°C° 0 mm 4 m/s 757 mmHg 82%
    07:00 +8°C° 0 mm 4 m/s 756 mmHg 80%
    08:00 +10°C° 0 mm 4 m/s 756 mmHg 77%
    09:00 +10°C° 0 mm 4 m/s 755 mmHg 74%
    10:00 +11°C° 0 mm 4 m/s 755 mmHg 73%
    11:00 +10°C° 0 mm 5 m/s 754 mmHg 71%
    12:00 +12°C° 0 mm 5 m/s 754 mmHg 70%
    13:00 +12°C° 0 mm 5 m/s 753 mmHg 69%
    14:00 +12°C° 0 mm 5 m/s 752 mmHg 68%
    15:00 +13°C° 0 mm 5 m/s 751 mmHg 68%
    16:00 +13°C° 0 mm 5 m/s 750 mmHg 73%
    17:00 +12°C° 0 mm 5 m/s 749 mmHg 79%
    18:00 +12°C° 0 mm 5 m/s 749 mmHg 84%
    19:00 +11°C° 0.1 mm 6 m/s 748 mmHg 87%
    20:00 +10°C° 0.1 mm 6 m/s 748 mmHg 90%
    21:00 +10°C° 0.1 mm 6 m/s 748 mmHg 92%
    22:00 +9°C° 0.1 mm 7 m/s 747 mmHg 89%
    23:00 +7°C° 0.1 mm 8 m/s 746 mmHg 86%
    Arată mai mult